| time (UTC) | temp F | wind direction | speed MPH | gust MPH | rain 1hr in | rain 24hr in | rain mn in | humidity % | barometer mb |
| 20260901230016 | 97 | 82 | 6.0 | 12.0 | 0.00 | 0.00 | 0.00 | 38 | 987.4 |
| 20260901224512 | 97 | 107 | 5.0 | 12.0 | 0.00 | 0.00 | 0.00 | 39 | 987.5 |
| 20260901223011 | 97 | 105 | 5.0 | 11.0 | 0.00 | 0.00 | 0.00 | 41 | 987.6 |
| 20260901221510 | 96 | 135 | 3.0 | 9.0 | 0.00 | 0.00 | 0.00 | 42 | 987.6 |
| 20260901220013 | 96 | 96 | 4.0 | 10.0 | 0.00 | 0.00 | 0.00 | 41 | 987.7 |
| 20260901214508 | 98 | 92 | 6.0 | 15.0 | 0.00 | 0.00 | 0.00 | 40 | 987.6 |
| 20260901213006 | 98 | 106 | 1.0 | 12.0 | 0.00 | 0.00 | 0.00 | 40 | 987.6 |
| 20260901211554 | 98 | 100 | 7.0 | 12.0 | 0.00 | 0.00 | 0.00 | 40 | 987.7 |
| 20260901210110 | 97 | 44 | 3.0 | 12.0 | 0.00 | 0.00 | 0.00 | 42 | 988.0 |
| 20260901204547 | 97 | 91 | 6.0 | 11.0 | 0.00 | 0.00 | 0.00 | 42 | 988.3 |
| 20260901203046 | 95 | 125 | 0.0 | 8.0 | 0.00 | 0.00 | 0.00 | 42 | 988.5 |
| 20260901201543 | 96 | 106 | 3.0 | 9.0 | 0.00 | 0.00 | 0.00 | 44 | 988.8 |
| 20260901200041 | 96 | 107 | 4.0 | 11.0 | 0.00 | 0.00 | 0.00 | 44 | 988.9 |
| 20260901194539 | 94 | 50 | 6.0 | 10.0 | 0.00 | 0.00 | 0.00 | 47 | 989.1 |
| 20260901193041 | 94 | 74 | 7.0 | 10.0 | 0.00 | 0.00 | 0.00 | 46 | 989.3 |
| 20260901191534 | 96 | 76 | 6.0 | 10.0 | 0.00 | 0.00 | 0.00 | 47 | 989.4 |
| 20260901190021 | 93 | 119 | 4.0 | 10.0 | 0.00 | 0.00 | 0.00 | 49 | 989.6 |
| 20260901184521 | 93 | 63 | 2.0 | 8.0 | 0.00 | 0.00 | 0.00 | 48 | 989.9 |
| 20260901183016 | 94 | 101 | 4.0 | 9.0 | 0.00 | 0.00 | 0.00 | 47 | 990.0 |
| 20260901181512 | 94 | 92 | 0.0 | 11.0 | 0.00 | 0.00 | 0.00 | 47 | 990.3 |
| 20260901180008 | 94 | 130 | 4.0 | 10.0 | 0.00 | 0.00 | 0.00 | 46 | 990.6 |
| 20260901174505 | 94 | 101 | 2.0 | 12.0 | 0.00 | 0.00 | 0.00 | 47 | 990.8 |
| 20260901173003 | 93 | 65 | 4.0 | 11.0 | 0.00 | 0.00 | 0.00 | 49 | 991.0 |
| 20260901171609 | 92 | 165 | 6.0 | 10.0 | 0.00 | 0.00 | 0.00 | 51 | 991.2 |
| 20260901170058 | 92 | 138 | 3.0 | 11.0 | 0.00 | 0.00 | 0.00 | 49 | 991.3 |
| 20260901164551 | 92 | 80 | 5.0 | 8.0 | 0.00 | 0.00 | 0.00 | 51 | 991.4 |
| 20260901163103 | 91 | 92 | 2.0 | 7.0 | 0.00 | 0.00 | 0.00 | 53 | 991.5 |
| 20260901161539 | 90 | 119 | 3.0 | 7.0 | 0.00 | 0.00 | 0.00 | 56 | 991.8 |
| 20260901160040 | 90 | 140 | 3.0 | 8.0 | 0.00 | 0.00 | 0.00 | 57 | 991.7 |
| 20260901154548 | 89 | 159 | 0.0 | 6.0 | 0.00 | 0.00 | 0.00 | 59 | 991.7 |
| 20260901153135 | 89 | 202 | 2.0 | 6.0 | 0.00 | 0.00 | 0.00 | 59 | 991.7 |
| 20260901151520 | 87 | 340 | 0.0 | 6.0 | 0.00 | 0.00 | 0.00 | 62 | 991.7 |
| 20260901150016 | 86 | 286 | 0.0 | 3.0 | 0.00 | 0.00 | 0.00 | 65 | 991.7 |
| 20260901144518 | 85 | 291 | 0.0 | 6.0 | 0.00 | 0.00 | 0.00 | 66 | 991.6 |
| 20260901143008 | 83 | 257 | 0.0 | 4.0 | 0.00 | 0.00 | 0.00 | 66 | 991.8 |
| 20260901141504 | 82 | 232 | 0.0 | 4.0 | 0.00 | 0.00 | 0.00 | 64 | 992.0 |
| 20260901140104 | 81 | 186 | 1.0 | 5.0 | 0.00 | 0.00 | 0.00 | 61 | 992.0 |
| 20260901134603 | 80 | 155 | 0.0 | 0.0 | 0.00 | 0.00 | 0.00 | 59 | 991.9 |
| 20260901133105 | 78 | 153 | 0.0 | 3.0 | 0.00 | 0.00 | 0.00 | 56 | 992.0 |
| 20260901131555 | 77 | 194 | 0.0 | 0.0 | 0.00 | 0.00 | 0.00 | 53 | 991.9 |
| 20260901130034 | 75 | 194 | 0.0 | 0.0 | 0.00 | 0.00 | 0.00 | 51 | 991.6 |
| 20260901124535 | 74 | 194 | 0.0 | 0.0 | 0.00 | 0.00 | 0.00 | 48 | 991.5 |
| 20260901123013 | 75 | 196 | 0.0 | 0.0 | 0.00 | 0.00 | 0.00 | 43 | 991.3 |
| 20260901121512 | 74 | 196 | 0.0 | 0.0 | 0.00 | 0.00 | 0.00 | 49 | 991.1 |
| 20260901120051 | 75 | 196 | 0.0 | 0.0 | 0.00 | 0.00 | 0.00 | 49 | 991.0 |
| 20260901114552 | 75 | 196 | 0.0 | 0.0 | 0.00 | 0.00 | 0.00 | 45 | 990.8 |
| 20260901113040 | 75 | 196 | 0.0 | 0.0 | 0.00 | 0.00 | 0.00 | 48 | 990.9 |
| 20260901111536 | 75 | 196 | 0.0 | 0.0 | 0.00 | 0.00 | 0.00 | 53 | 991.1 |
| 20260901110034 | 75 | 196 | 0.0 | 0.0 | 0.00 | 0.00 | 0.00 | 53 | 990.9 |
| 20260901104539 | 75 | 196 | 0.0 | 0.0 | 0.00 | 0.00 | 0.00 | 56 | 990.8 |
| 20260901103036 | 76 | 196 | 0.0 | 0.0 | 0.00 | 0.00 | 0.00 | 59 | 990.7 |
| 20260901101527 | 77 | 196 | 0.0 | 0.0 | 0.00 | 0.00 | 0.00 | 61 | 990.5 |
| 20260901100023 | 77 | 196 | 0.0 | 0.0 | 0.00 | 0.00 | 0.00 | 62 | 990.6 |
| 20260901094524 | 77 | 196 | 0.0 | 0.0 | 0.00 | 0.00 | 0.00 | 62 | 990.7 |
| 20260901093004 | 78 | 196 | 0.0 | 0.0 | 0.00 | 0.00 | 0.00 | 64 | 990.8 |
| 20260901091503 | 78 | 196 | 0.0 | 2.0 | 0.00 | 0.00 | 0.00 | 65 | 990.7 |
| 20260901090052 | 79 | 196 | 1.0 | 5.0 | 0.00 | 0.00 | 0.00 | 65 | 990.6 |
| 20260901084540 | 79 | 198 | 3.0 | 5.0 | 0.00 | 0.00 | 0.00 | 66 | 990.7 |
| 20260901083027 | 79 | 199 | 2.0 | 5.0 | 0.00 | 0.00 | 0.00 | 66 | 990.6 |
| 20260901081528 | 80 | 209 | 2.0 | 5.0 | 0.00 | 0.00 | 0.00 | 66 | 990.6 |
| 20260901080026 | 80 | 214 | 2.0 | 7.0 | 0.00 | 0.00 | 0.00 | 67 | 990.6 |
| 20260901074525 | 81 | 226 | 4.0 | 7.0 | 0.00 | 0.00 | 0.00 | 67 | 990.6 |
| 20260901073029 | 81 | 217 | 4.0 | 7.0 | 0.00 | 0.00 | 0.00 | 67 | 990.6 |
| 20260901071524 | 81 | 227 | 5.0 | 7.0 | 0.00 | 0.00 | 0.00 | 67 | 990.8 |
| 20260901070029 | 82 | 214 | 4.0 | 8.0 | 0.00 | 0.00 | 0.00 | 67 | 990.8 |
| 20260901064525 | 82 | 227 | 5.0 | 9.0 | 0.00 | 0.00 | 0.00 | 67 | 990.7 |
| 20260901063006 | 82 | 202 | 6.0 | 10.0 | 0.00 | 0.00 | 0.00 | 67 | 990.6 |
| 20260901061505 | 83 | 196 | 7.0 | 11.0 | 0.00 | 0.00 | 0.00 | 67 | 990.4 |
| 20260901060047 | 83 | 192 | 8.0 | 12.0 | 0.00 | 0.00 | 0.00 | 67 | 990.4 |
| 20260901054547 | 83 | 186 | 8.0 | 14.0 | 0.00 | 0.00 | 0.00 | 67 | 990.3 |
| 20260901053029 | 84 | 194 | 7.0 | 10.0 | 0.00 | 0.00 | 0.00 | 67 | 990.2 |
| 20260901051528 | 84 | 190 | 6.0 | 11.0 | 0.00 | 0.00 | 0.00 | 66 | 990.1 |
| 20260901050010 | 84 | 196 | 6.0 | 10.0 | 0.00 | 0.00 | 0.00 | 65 | 989.9 |
| 20260901044510 | 85 | 199 | 8.0 | 11.0 | 0.00 | 0.00 | 0.00 | 64 | 989.8 |
| 20260901043059 | 85 | 191 | 8.0 | 12.0 | 0.00 | 0.00 | 0.00 | 63 | 989.8 |
| 20260901041559 | 86 | 200 | 9.0 | 13.0 | 0.00 | 0.00 | 0.00 | 61 | 989.7 |
| 20260901040103 | 86 | 194 | 8.0 | 10.0 | 0.00 | 0.00 | 0.00 | 59 | 989.7 |
| 20260901034558 | 86 | 190 | 8.0 | 13.0 | 0.00 | 0.00 | 0.00 | 56 | 989.7 |
| 20260901033058 | 85 | 188 | 8.0 | 10.0 | 0.00 | 0.00 | 0.00 | 55 | 989.5 |
| 20260901031556 | 85 | 186 | 4.0 | 7.0 | 0.00 | 0.00 | 0.00 | 49 | 989.4 |
| 20260901030054 | 85 | 136 | 1.0 | 3.0 | 0.00 | 0.00 | 0.00 | 47 | 989.2 |
| 20260901024558 | 86 | 136 | 0.0 | 0.0 | 0.00 | 0.00 | 0.00 | 44 | 989.0 |
| 20260901023039 | 87 | 136 | 1.0 | 3.0 | 0.00 | 0.00 | 0.00 | 43 | 988.8 |
| 20260901021548 | 87 | 136 | 0.0 | 2.0 | 0.00 | 0.00 | 0.00 | 43 | 988.7 |
| 20260901020018 | 88 | 135 | 1.0 | 4.0 | 0.00 | 0.00 | 0.00 | 43 | 988.5 |
| 20260901014518 | 89 | 134 | 1.0 | 3.0 | 0.00 | 0.00 | 0.00 | 42 | 988.3 |
| 20260901013006 | 90 | 133 | 1.0 | 3.0 | 0.00 | 0.00 | 0.00 | 39 | 988.1 |
| 20260901011506 | 92 | 133 | 2.0 | 5.0 | 0.00 | 0.00 | 0.00 | 37 | 988.0 |
| 20260901010015 | 93 | 138 | 4.0 | 7.0 | 0.00 | 0.00 | 0.00 | 35 | 988.0 |
| 20260901004504 | 94 | 134 | 4.0 | 9.0 | 0.00 | 0.00 | 0.00 | 34 | 988.0 |
| 20260901003003 | 95 | 142 | 5.0 | 9.0 | 0.00 | 0.00 | 0.00 | 33 | 988.0 |
| 20260901001503 | 96 | 126 | 7.0 | 11.0 | 0.00 | 0.00 | 0.00 | 33 | 987.9 |
| 20260901000001 | 96 | 134 | 5.0 | 11.0 | 0.00 | 0.00 | 0.00 | 33 | 987.8 |
| 20260831234501 | 97 | 98 | 5.0 | 11.0 | 0.00 | 0.00 | 0.00 | 34 | 987.8 |
| 20260831233043 | 97 | 136 | 6.0 | 12.0 | 0.00 | 0.00 | 0.00 | 35 | 987.9 |
| 20260831231548 | 96 | 144 | 3.0 | 10.0 | 0.00 | 0.00 | 0.00 | 35 | 987.9 |